Hilo, HI

12:58 PM HST on December 13, 2017 (GMT -1000)
Hilo International

Weather History for PHTO - February, 2012

Change the Weather History Date:

Wednesday, February 22, 2012

  Actual Average Record
Temperature  
Mean Temperature 71 °F 71 °F  
Max Temperature 76 °F 79 °F 87 °F (1963)
Min Temperature 66 °F 64 °F 57 °F (1962)
Degree Days  
Heating Degree Days 0 0  
Month to date heating degree days 0 0  
Since 1 July heating degree days 0 0  
Cooling Degree Days 6 6  
Month to date cooling degree days 146 132  
Year to date cooling degree days 374 330  
Growing Degree Days 20 (Base 50)    
Moisture  
Dew Point 65 °F    
Average Humidity 83    
Maximum Humidity 93    
Minimum Humidity 73    
Precipitation  
Precipitation 1.07 in 0.35 in 5.26 in (2013)
Month to date precipitation 7.70 7.34  
Year to date precipitation 9.77 16.60  
Snow  
Snow 0.00 in - - ()
Month to date snowfall 0.0  
Since 1 July snowfall 0.0  
Snow Depth 0.00 in    
Sea Level Pressure  
Sea Level Pressure 30.11 in    
Wind  
Wind Speed 4 mph (SW)    
Max Wind Speed 17 mph    
Max Gust Speed 22 mph    
Visibility 8 miles    
Events Rain    
T = Trace of Precipitation, MM = Missing Value Source: NWS Daily Summary

Daily Weather History Graph

Daily Weather History Graph

Search for Another Location

Airport or City:

Trip Planner

Search our weather history database for the weather conditions in past years. The results will help you decide how hot, cold, wet, or windy it might be!

Date:

Astronomy

Feb. 22, 2012 Rise Set
Actual Time 6:44 AM HST 6:22 PM HST
Civil Twilight 6:22 AM HST 6:44 PM HST
Nautical Twilight 5:57 AM HST 7:10 PM HST
Astronomical Twilight 5:31 AM HST 7:36 PM HST
Moon 7:03 AM HST (2/22) 7:21 PM HST (2/22)
Length of Visible Light 12h 22m
Length of Day
11h 37m
New Moon, 1% of the Moon is Illuminated
Feb 22
New Moon
Feb 29
First Quarter
Mar 7
Full
Mar 14
Last Quarter
Mar 22
New

Hourly Weather History & Observations

Time (HST) Temp. Dew Point Humidity Pressure Visibility Wind Dir Wind Speed Gust Speed Precip Events Conditions
12:12 AM 68.0 °F 64.4 °F 88% 30.14 in 10.0 mi SW 3.5 mph - N/A   Overcast
12:21 AM 68.0 °F 64.4 °F 88% 30.14 in 10.0 mi SW 3.5 mph - N/A   Overcast
12:53 AM 66.9 °F 64.9 °F 93% 30.13 in 10.0 mi WSW 4.6 mph - N/A   Mostly Cloudy
1:53 AM 68.0 °F 64.4 °F 88% 30.12 in 10.0 mi Calm Calm - N/A   Overcast
2:53 AM 68.0 °F 64.0 °F 87% 30.09 in 8.0 mi Calm Calm - 0.00 in Rain Light Rain
3:17 AM 68.0 °F 64.4 °F 88% 30.10 in 7.0 mi NNE 10.4 mph - 0.01 in Rain Light Rain
3:32 AM 68.0 °F 64.4 °F 88% 30.10 in 10.0 mi SW 4.6 mph - 0.03 in Rain Light Rain
3:53 AM 68.0 °F 64.0 °F 87% 30.09 in 10.0 mi West 8.1 mph - 0.03 in   Overcast
4:14 AM 66.2 °F 64.4 °F 94% 30.10 in 2.5 mi North 5.8 mph - 0.00 in Rain Heavy Rain
4:33 AM 66.2 °F 64.4 °F 94% 30.09 in 8.0 mi SW 4.6 mph - 0.17 in Rain Light Rain
4:53 AM 66.2 °F 64.0 °F 93% 30.09 in 10.0 mi SW 4.6 mph - 0.18 in   Overcast
5:53 AM 66.9 °F 64.0 °F 90% 30.10 in 10.0 mi WSW 5.8 mph - 0.00 in   Mostly Cloudy
6:06 AM - - N/A% 30.11 in 10.0 mi WSW 6.9 mph - N/A   Mostly Cloudy
6:20 AM 66.2 °F 64.4 °F 94% 30.11 in 10.0 mi SW 4.6 mph - N/A   Mostly Cloudy
6:27 AM 66.2 °F 64.4 °F 94% 30.12 in 10.0 mi WSW 5.8 mph - N/A   Mostly Cloudy
6:53 AM 66.9 °F 64.0 °F 90% 30.12 in 10.0 mi SW 3.5 mph - N/A   Scattered Clouds
7:42 AM 68.0 °F 62.6 °F 83% 30.14 in 10.0 mi SW 3.5 mph - N/A   Overcast
7:53 AM 68.4 °F 63.0 °F 83% 30.14 in 10.0 mi WSW 4.6 mph - N/A   Overcast
8:14 AM 69.8 °F 64.4 °F 83% 30.14 in 10.0 mi WSW 3.5 mph - N/A   Overcast
8:53 AM 71.1 °F 64.9 °F 81% 30.14 in 10.0 mi SW 5.8 mph - 0.00 in Rain Light Rain
9:14 AM 68.0 °F 64.4 °F 88% 30.17 in 1.8 mi NNE 6.9 mph - 0.09 in Rain Heavy Rain
9:17 AM 68.0 °F 64.4 °F 88% 30.17 in 7.0 mi NNE 4.6 mph - 0.15 in Rain Light Rain
9:33 AM 68.0 °F 64.4 °F 88% 30.16 in 10.0 mi Calm Calm - 0.23 in   Overcast
9:53 AM 72.0 °F 64.9 °F 78% 30.16 in 10.0 mi West 5.8 mph - 0.23 in   Overcast
10:00 AM 71.6 °F 66.2 °F 83% 30.16 in 10.0 mi WSW 8.1 mph - N/A   Mostly Cloudy
10:53 AM 73.9 °F 64.9 °F 73% 30.14 in 10.0 mi WSW 4.6 mph - N/A   Mostly Cloudy
11:42 AM 69.8 °F 64.4 °F 83% 30.15 in 2.0 mi East 5.8 mph - 0.09 in Rain Heavy Rain
11:45 AM 69.8 °F 66.2 °F 88% 30.15 in 1.5 mi SSE 3.5 mph - 0.12 in   Overcast
11:53 AM 69.1 °F 66.0 °F 90% 30.14 in 1.5 mi Calm Calm - 0.22 in Rain Heavy Rain
11:58 AM 68.0 °F 64.4 °F 88% 30.14 in 3.0 mi Calm Calm - 0.05 in Rain Light Rain
12:31 PM 69.8 °F 66.2 °F 88% 30.12 in 3.0 mi WNW 3.5 mph - 0.12 in Rain Heavy Rain
12:33 PM 69.8 °F 66.2 °F 88% 30.12 in 7.0 mi WNW 5.8 mph - 0.14 in Rain Heavy Rain
12:44 PM 71.6 °F 66.2 °F 83% 30.11 in 8.0 mi West 6.9 mph - 0.16 in Rain Rain
12:53 PM 72.0 °F 68.0 °F 87% 30.11 in 10.0 mi West 8.1 mph - 0.18 in   Mostly Cloudy
1:53 PM 73.9 °F 66.0 °F 76% 30.07 in 10.0 mi SSW 4.6 mph - 0.13 in   Overcast
2:01 PM 75.2 °F 66.2 °F 73% 30.07 in 10.0 mi Calm Calm - 0.00 in Rain Light Rain
2:09 PM 73.4 °F 66.2 °F 78% 30.06 in 10.0 mi South 3.5 mph - 0.00 in   Mostly Cloudy
2:28 PM 73.4 °F 68.0 °F 83% 30.06 in 10.0 mi NNE 4.6 mph - 0.00 in   Mostly Cloudy
2:53 PM 75.9 °F 68.0 °F 76% 30.04 in 10.0 mi North 5.8 mph - 0.00 in   Mostly Cloudy
3:25 PM 71.6 °F 68.0 °F 88% 30.05 in 7.0 mi ESE 6.9 mph - 0.10 in Rain Light Rain
3:53 PM 72.0 °F 68.0 °F 87% 30.04 in 10.0 mi East 5.8 mph - 0.10 in Rain Light Rain
4:53 PM 73.0 °F 66.9 °F 81% 30.04 in 10.0 mi ESE 5.8 mph - 0.00 in   Overcast
5:14 PM 73.4 °F 66.2 °F 78% 30.05 in 10.0 mi East 9.2 mph - N/A   Mostly Cloudy
5:30 PM 71.6 °F 66.2 °F 83% 30.05 in 8.0 mi ESE 8.1 mph - 0.00 in Rain Light Rain
5:53 PM 71.1 °F 66.9 °F 87% 30.06 in 10.0 mi ESE 4.6 mph - 0.00 in   Scattered Clouds
6:53 PM 69.1 °F 64.9 °F 87% 30.07 in 10.0 mi SSW 4.6 mph - N/A   Mostly Cloudy
7:53 PM 70.0 °F 66.0 °F 87% 30.09 in 10.0 mi East 5.8 mph - N/A   Overcast
8:01 PM 69.8 °F 66.2 °F 88% 30.09 in 10.0 mi SE 8.1 mph - N/A   Overcast
8:09 PM 69.8 °F 64.4 °F 83% 30.10 in 10.0 mi SSE 4.6 mph - N/A   Overcast
8:30 PM 69.8 °F 64.4 °F 83% 30.10 in 10.0 mi SE 4.6 mph - N/A   Overcast
8:53 PM 69.1 °F 64.9 °F 87% 30.10 in 10.0 mi SW 3.5 mph - 0.00 in   Overcast
9:35 PM 69.8 °F 66.2 °F 88% 30.10 in 10.0 mi WSW 4.6 mph - N/A   Mostly Cloudy
9:53 PM 69.1 °F 66.0 °F 90% 30.10 in 10.0 mi Calm Calm - N/A   Overcast
10:04 PM 69.8 °F 66.2 °F 88% 30.11 in 10.0 mi WSW 3.5 mph - N/A   Overcast
10:29 PM 69.8 °F 66.2 °F 88% 30.10 in 6.0 mi SW 6.9 mph - 0.05 in Rain Light Rain
10:40 PM 68.0 °F 64.4 °F 88% 30.10 in 6.0 mi SW 3.5 mph - 0.06 in Rain Light Rain
10:53 PM 66.9 °F 64.0 °F 90% 30.10 in 2.0 mi West 8.1 mph - 0.08 in Rain Heavy Rain
11:00 PM 66.2 °F 64.4 °F 94% 30.11 in 1.8 mi West 3.5 mph - 0.10 in Rain Heavy Rain
11:05 PM 66.2 °F 64.4 °F 94% 30.11 in 2.0 mi Calm Calm - 0.15 in Rain Heavy Rain
11:13 PM 66.2 °F 64.4 °F 94% 30.11 in 1.5 mi WSW 5.8 mph - 0.24 in Rain Heavy Rain
11:20 PM 66.2 °F 62.6 °F 88% 30.11 in 3.0 mi West 9.2 mph - 0.32 in Rain Rain
11:53 PM 66.9 °F 64.0 °F 90% 30.09 in 10.0 mi West 8.1 mph - 0.33 in   Overcast